TimeCDT,TemperatureF,Dew PointF,Humidity,Sea Level PressureIn,VisibilityMPH,Wind Direction,Wind SpeedMPH,Gust SpeedMPH,PrecipitationIn,Events,Conditions,WindDirDegrees,DateUTC
12:54 AM,72.0,57.9,61,30.01,10.0,SSE,11.5,-,N/A,,Overcast,160,2013-09-29 05:54:00
1:54 AM,71.1,57.9,63,30.01,10.0,SSE,9.2,-,N/A,,Overcast,160,2013-09-29 06:54:00
2:54 AM,71.1,57.9,63,30.01,10.0,South,9.2,-,N/A,,Overcast,170,2013-09-29 07:54:00
3:54 AM,71.1,57.9,63,30.01,10.0,SSW,5.8,-,0.00,Rain,Light Rain,210,2013-09-29 08:54:00
4:54 AM,70.0,59.0,68,30.01,10.0,South,5.8,-,0.00,Rain,Light Rain,180,2013-09-29 09:54:00
5:54 AM,68.0,61.0,78,30.04,10.0,South,5.8,-,0.01,Rain,Light Rain,190,2013-09-29 10:54:00
6:54 AM,68.0,61.0,78,30.04,10.0,SSE,8.1,-,0.01,,Overcast,150,2013-09-29 11:54:00
7:54 AM,66.0,61.0,84,30.04,10.0,Calm,Calm,-,0.00,Rain,Light Rain,0,2013-09-29 12:54:00
8:54 AM,66.9,61.0,81,30.03,10.0,SE,5.8,-,0.00,Rain,Light Rain,140,2013-09-29 13:54:00
9:43 AM,68.0,60.8,78,30.04,10.0,SSE,5.8,-,0.00,Rain,Light Rain,160,2013-09-29 14:43:00
9:54 AM,68.0,62.1,81,30.03,10.0,South,5.8,-,0.00,Rain,Light Rain,170,2013-09-29 14:54:00
10:54 AM,69.1,60.1,73,30.02,10.0,SSE,9.2,-,0.00,,Overcast,160,2013-09-29 15:54:00
11:31 AM,69.8,60.8,73,30.03,10.0,SSE,6.9,-,N/A,,Overcast,160,2013-09-29 16:31:00
11:54 AM,70.0,61.0,73,30.02,10.0,SE,6.9,-,N/A,,Overcast,140,2013-09-29 16:54:00
12:18 PM,71.6,60.8,69,30.03,10.0,SSE,6.9,-,N/A,,Overcast,160,2013-09-29 17:18:00
12:54 PM,69.1,62.1,78,30.01,9.0,SSE,6.9,-,0.00,Rain,Light Rain,160,2013-09-29 17:54:00
1:41 PM,68.0,64.4,88,30.00,6.0,SSE,5.8,-,0.00,Rain,Light Rain,150,2013-09-29 18:41:00
1:54 PM,66.9,64.0,90,29.99,3.0,SE,5.8,-,0.01,Rain,Light Rain,130,2013-09-29 18:54:00
2:54 PM,68.0,64.9,90,29.96,2.0,ESE,5.8,-,0.01,,Overcast,120,2013-09-29 19:54:00
3:04 PM,68.0,64.4,88,29.97,2.0,ESE,6.9,-,N/A,,Overcast,120,2013-09-29 20:04:00
3:19 PM,68.0,64.4,88,29.97,2.0,SE,4.6,-,N/A,,Overcast,130,2013-09-29 20:19:00
3:30 PM,68.0,66.2,94,29.97,2.0,Variable,4.6,-,N/A,,Overcast,0,2013-09-29 20:30:00
3:41 PM,68.0,66.2,94,29.96,2.0,ESE,4.6,-,N/A,,Overcast,120,2013-09-29 20:41:00
3:54 PM,69.1,66.0,90,29.95,2.0,SE,6.9,-,0.01,,Overcast,130,2013-09-29 20:54:00
3:56 PM,69.8,66.2,88,29.96,2.0,SE,5.8,-,0.00,Rain,Light Rain,130,2013-09-29 20:56:00
4:50 PM,69.8,66.2,88,29.96,2.0,SE,4.6,-,0.00,,Light Drizzle,130,2013-09-29 21:50:00
4:54 PM,69.1,66.0,90,29.95,2.0,ESE,4.6,-,0.00,,Light Drizzle,120,2013-09-29 21:54:00
5:13 PM,69.8,66.2,88,29.96,3.0,SSE,5.8,-,0.01,,Light Drizzle,150,2013-09-29 22:13:00
5:54 PM,69.1,66.0,90,29.96,3.0,SSE,5.8,-,0.01,,Overcast,160,2013-09-29 22:54:00
6:44 PM,68.0,66.2,94,29.97,2.0,SE,5.8,-,0.00,,Light Drizzle,130,2013-09-29 23:44:00
6:54 PM,68.0,64.9,90,29.96,3.0,SE,5.8,-,0.00,,Light Drizzle,140,2013-09-29 23:54:00
7:54 PM,68.0,64.9,90,29.97,3.0,SSE,6.9,-,0.00,,Overcast,160,2013-09-30 00:54:00
8:43 PM,66.2,64.4,94,29.98,2.0,SE,5.8,-,0.00,,Light Drizzle,130,2013-09-30 01:43:00
8:54 PM,66.9,64.9,93,29.98,2.0,SE,3.5,-,0.00,,Light Drizzle,130,2013-09-30 01:54:00
9:54 PM,66.9,64.9,93,29.97,2.0,SE,4.6,-,0.00,,Overcast,130,2013-09-30 02:54:00
10:54 PM,66.0,64.0,93,29.96,2.0,SE,4.6,-,0.02,Rain,Light Rain,130,2013-09-30 03:54:00
11:14 PM,66.2,64.4,94,29.97,2.0,ESE,4.6,-,0.00,,Overcast,120,2013-09-30 04:14:00
11:54 PM,66.9,64.0,90,29.95,2.0,SE,5.8,-,0.00,,Overcast,140,2013-09-30 04:54:00